[Iaude] MPEC J37: 2024 JM [a=1.09,e=0.37,i=18.4,H=24.5]
    mpec at cfa.harvard.edu 
    mpec at cfa.harvard.edu
       
    Fri May  3 06:29:54 EDT 2024
    
    
  
M.P.E.C. 2024-J37                                   Issued 2024 May 3, 10:28 UT
     The Minor Planet Electronic Circulars contain information on unusual
         minor planets, routine data on comets and natural satellites,
         and occasional editorial announcements.  They are published
    on behalf of Division F of the International Astronomical Union by the
          Minor Planet Center, Smithsonian Astrophysical Observatory,
                          Cambridge, MA 02138, U.S.A.
			  
             Prepared using the Tamkin Foundation Computer Network
                              MPC at CFA.HARVARD.EDU
            URL https://www.minorplanetcenter.net/    ISSN 1523-6714
                                    2024 JM                                     
Observations:
     K24J00M*1C2024 05 01.37733015 44 31.405+23 13 04.37         20.59GVEJ037G96
     K24J00M 1C2024 05 01.38251115 44 28.990+23 13 17.18         20.79GVEJ037G96
     K24J00M 1C2024 05 01.38768415 44 26.570+23 13 30.32         20.77GVEJ037G96
     K24J00M 1C2024 05 01.39287015 44 24.148+23 13 43.50         20.44GVEJ037G96
     K24J00M mC2024 05 01.46382015 43 51.625+23 16 37.02         21.06GVEJ037I52
     K24J00M mC2024 05 01.46444215 43 51.344+23 16 38.75         21.14GVEJ037I52
     K24J00M mC2024 05 01.46507315 43 51.078+23 16 40.30         21.64GVEJ037I52
     K24J00M KC2024 05 02.21191715 38 58.650+23 45 31.57               VEJ037I52
     K24J00M KC2024 05 02.21305515 38 58.175+23 45 33.55         20.81GVEJ037I52
     K24J00M KC2024 05 02.21419915 38 57.743+23 45 36.04         21.23GVEJ037I52
     K24J00M KC2024 05 02.21520015 38 55.35 +23 45 35.3          21.0 GVEJ037H21
     K24J00M KC2024 05 02.21533715 38 57.289+23 45 39.24         20.84GVEJ037I52
     K24J00M KC2024 05 02.22358615 38 51.93 +23 45 54.0          21.2 GVEJ037H21
     K24J00M KC2024 05 02.22954915 38 49.47 +23 46 06.9          20.8 GVEJ037H21
     K24J00M KC2024 05 02.25540315 38 40.52 +23 47 06.3          21.1 GXEJ037858
     K24J00M KC2024 05 02.26242015 38 37.65 +23 47 21.9          20.9 GXEJ037858
     K24J00M KC2024 05 02.26931015 38 34.82 +23 47 37.2          20.5 GXEJ037858
     K24J00M KC2024 05 03.41587715 31 48.068+24 23 30.70         20.98GVEJ037I52
     K24J00M KC2024 05 03.41810715 31 47.298+24 23 33.86         20.89GVEJ037I52
     K24J00M KC2024 05 03.42033515 31 46.513+24 23 37.46         20.98GVEJ037I52
     K24J00M KC2024 05 03.42203915 31 45.912+24 23 40.16         20.97GVEJ037I52
Observer details:
858 Tebbutt Observatory, Edgewood.  Observer F. B. Zoltowski.  0.51-m f/8.1
    Schmidt-Cassegrain + CCD.
G96 Mt. Lemmon Survey.  Observer J. B. Fazekas.  Measurers T. Beuden, V. F.
    Carvajal, D. Fay, J. B. Fazekas, D. C. Fuls, A. R. Gibbs, A. D. Grauer, H.
    Groeller, J. K. Hogan, R. A. Kowalski, S. M. Larson, G. J. Leonard, D.
    Rankin, R. L. Seaman, F. C. Shelly, K. W. Wierzchos.  1.5-m reflector +
    10K CCD.
H21 Astronomical Research Observatory, Westfield.  Observer R. Holmes.
    Measurers T. Linder, R. Holmes, L. Horn.  0.76-m f/3.0 astrograph + CCD.
I52 Steward Observatory, Mt. Lemmon Station.  Observers V. F. Carvajal, G. J.
    Leonard.  Measurers T. Beuden, V. F. Carvajal, D. Fay, J. B. Fazekas, D.
    C. Fuls, A. R. Gibbs, A. D. Grauer, H. Groeller, J. K. Hogan, R. A.
    Kowalski, S. M. Larson, G. J. Leonard, D. Rankin, R. L. Seaman, F. C.
    Shelly, K. W. Wierzchos.  1.0-m prime focus + CCD.
Orbital elements:
2024 JM                                                  Earth MOID = 0.0014 AU
Epoch 2024 Mar. 31.0 TT = JDT 2460400.5                 MPC                     
M  39.36380              (2000.0)            P               Q                  
n   0.86206200     Peri.  260.50807     -0.35129996     -0.92143473             
a   1.0933949      Node   211.69175     +0.93398258     -0.33252922             
e   0.3730609      Incl.   18.41667     +0.06530607     -0.20095361             
P   1.14           H   24.56          G   0.15           U   8                  
Residuals in seconds of arc
240501 G96  0.1+  0.0     240502 I52  0.1-  0.5+    240502 858  0.2+  0.3-
240501 G96  0.1+  0.3-    240502 I52  0.3-  0.2-    240502 858  0.3+  0.2-
240501 G96  0.1-  0.2-    240502 I52  0.2+  0.3-    240502 858  0.2+  0.0
240501 G96  0.3-  0.0     240502 H21  0.1-  0.0     240503 I52  0.2-  0.1+
240501 I52  0.0   0.0     240502 I52  0.3+  0.3+    240503 I52  0.0   0.2-
240501 I52  0.0   0.2+    240502 H21  0.1+  0.2+    240503 I52  0.0   0.1-
240501 I52  0.3+  0.3+    240502 H21  0.0   0.1-    240503 I52  0.0   0.1-
Ephemeris:
2024 JM                  a,e,i = 1.09, 0.37, 18                  q = 0.6855
Date    TT    R. A. (2000) Decl.     Delta      r    Elong.  Phase     V
2024 04 03    01 17 10.0 -32 43 32   0.1424  0.8929    38.6   135.7    26.4
...
2024 04 18    21 41 40.0 -28 05 37   0.03838 0.9918    70.4   107.5    21.5
...
2024 04 26    16 46 17.5 +15 33 09   0.05423 1.0436   132.5    45.3    20.1
...
2024 05 02    15 40 16.9 +23 38 10   0.09634 1.0814   138.1    38.5    21.2
2024 05 03    15 34 09.6 +24 11 45   0.1039  1.0876   138.1    38.2    21.4
2024 05 04    15 28 47.7 +24 38 52   0.1115  1.0937   138.0    38.1    21.5
...
2024 05 10    15 06 59.3 +25 57 28   0.1585  1.1299   136.4    38.0    22.4
...
2024 05 18    14 52 31.4 +25 51 36   0.2237  1.1759   133.2    38.8    23.2
...
2024 06 02    14 43 48.9 +23 34 09   0.3520  1.2546   126.2    40.7    24.4
A. U. Tomatic                (C) Copyright 2024 MPC           M.P.E.C. 2024-J37
    
    
More information about the Iaude
mailing list